www.pogodaiklimat.ru

Погода и климат >> Архив погоды >> Бахрейн >> Бахрейн


АРХИВ ПОГОДЫ в Бахрейне

Время (UTC), дата Ветер
(напр.,м/с)
 
Видим.   Явления Облачность Т
(С)
Тd
(С)
f
(%)
Тe
(С)
Тes
(С)
Комфортность P
(гПа)
Po
(гПа)
Тmin
(С)
Tmax
(С)
R
(мм)
R24
(мм)
S
(см)
06 18.08 СЗ 6 16 км 1/0
[Ac trans]
+37.2 +20.9 39 +44 +49 опасность
перегрева
1001.5 1001.3 +32.4
09 18.08 С 5 14 км 3/0
[Ac trans]
+39.1 +19.8 33 +44 +54 опасность
перегрева
1001.4 1001.2
12 18.08 С 5 14 км 3/0
[Ac trans]
+38.1 +22.5 41 +47 +51 опасность
перегрева
1000.9 1000.7
15 18.08 С 5 14 км 3/0
[Ac trans]
+34.8 +25.3 58 +49 +49 опасность
перегрева
1000.9 1000.7
18 18.08 СВ 4 12 км 3/0
[Ac trans]
+34.3 +25.1 59 +48 +48 опасность
перегрева
1002.8 1002.6 +39.7
21 18.08 С 2 14 км ясно +33.1 +24.8 62 +46 +46 опасность
перегрева
1001.7 1001.5
00 19.08 З 3 14 км ясно +32.8 +24.7 62 +46 +46 опасность
перегрева
1001.3 1001.1
03 19.08 З 3 16 км 3/0
[Ci fib]
+31.9 +23.6 62 +43 +44 опасность
перегрева
1002.6 1002.4
06 19.08 С 4 14 км 3/0
[Ci fib]
+35.5 +25.0 55 +49 +58 опасность
перегрева
1003.9 1003.7 +31.5
09 19.08 С 5 14 км ясно +36.8 +25.3 52 +51 +61 опасность
перегрева
1003.9 1003.7
12 19.08 С 6 14 км ясно +36.2 +25.4 54 +50 +55 опасность
перегрева
1002.8 1002.6
15 19.08 С 5 12 км ясно +34.1 +27.3 68 +53 +53 опасность
перегрева
1003.2 1003.0
18 19.08 С 3 12 км ясно +33.6 +27.5 71 +53 +53 опасность
перегрева
1004.7 1004.5 +37.8
21 19.08 СВ 3 12 км ясно +33.1 +27.0 70 +51 +51 опасность
перегрева
1003.7 1003.5
00 20.08 СВ 2 12 км ясно +32.4 +26.8 72 +50 +50 опасность
перегрева
1003.0 1002.8
03 20.08 нст 1 12 км ясно +32.0 +27.6 78 +52 +52 опасность
перегрева
1004.5 1004.3
06 20.08 нст 1 12 км ясно +37.0 +22.7 44 +46 +62 опасность
перегрева
1005.5 1005.3 +31.4
09 20.08 В 4 12 км ясно +37.6 +26.0 52 +53 +68 опасность
перегрева
1004.6 1004.4
12 20.08 С 3 12 км ясно +38.3 +23.9 44 +49 +57 опасность
перегрева
1003.3 1003.1
15 20.08 В 4 12 км 3/0
[Ci ing]
+35.1 +25.2 57 +49 +49 опасность
перегрева
1003.7 1003.5
18 20.08 В 3 12 км ясно +34.2 +25.3 60 +48 +48 опасность
перегрева
1004.3 1004.1 +39.2
21 20.08 В 2 8000 м мгла ясно +33.2 +28.7 77 +56 +56 опасность
перегрева
1003.2 1003.0
00 21.08 нст 1 7000 м мгла ясно +33.2 +29.2 80 +58 +58 опасность
перегрева
1002.9 1002.7
03 21.08 ЮЗ 2 7000 м мгла ясно +33.1 +26.8 70 +51 +52 опасность
перегрева
1003.4 1003.2
06 21.08 З 3 12 км ясно +37.0 +26.4 55 +53 +65 опасность
перегрева
1005.0 1004.8 +31.9
09 21.08 нст 2 12 км ясно +41.2 +17.8 26 +44 +66 опасность
перегрева
1004.0 1003.8
12 21.08 В 4 12 км 1/1 1200 м
[Cu med, cong]
+39.6 +25.8 46 +54 +60 опасность
перегрева
1001.8 1001.6
15 21.08 В 3 8000 м мгла 3/3 1200 м
[Cu hum]
+35.4 +28.8 69 +58 +58 опасность
перегрева
1001.5 1001.3
18 21.08 ЮВ 4 6000 м мгла 3/1 1200 м
[Cu hum Ac trans]
+34.0 +28.8 74 +57 +57 опасность
перегрева
1002.3 1002.1 +42.9
21 21.08 В 3 8000 м мгла 4/0
[Ac trans]
+34.2 +28.3 71 +55 +55 опасность
перегрева
1001.8 1001.6
00 22.08 Ю 3 7000 м мгла 4/0
[Ac trans]
+34.0 +28.1 71 +55 +55 опасность
перегрева
1001.0 1000.8
03 22.08 ЮЗ 3 7000 м мгла 4/0
[Ac trans]
+34.1 +25.2 60 +48 +49 опасность
перегрева
1001.9 1001.7
06 22.08 З 3 12 км 1/0
[Ac trans]
+38.8 +17.5 29 +42 +53 опасность
перегрева
1002.5 1002.3 +33.5
09 22.08 В 4 12 км 3/0
[Ac trans]
+38.0 +22.8 42 +47 +60 опасность
перегрева
1001.7 1001.5
12 22.08 В 3 12 км 4/0
[Ac trans]
+38.3 +21.0 37 +45 +51 опасность
перегрева
1000.6 1000.4
15 22.08 В 3 9000 м мгла 6/0
[Ac cast]
+34.7 +28.8 72 +58 +58 опасность
перегрева
1000.4 1000.2
21 22.08 В 4 5000 м мгла 6/0
[Ac trans]
+33.5 +28.4 75 +55 +55 опасность
перегрева
1001.1 1000.9
00 23.08 ЮВ 2 5000 м мгла ясно +33.0 +27.6 73 +52 +52 опасность
перегрева
1001.0 1000.8
03 23.08 В 2 5000 м мгла 3/0
[Ac trans]
+32.6 +27.5 75 +52 +53 опасность
перегрева
1002.4 1002.2
06 23.08 В 5 6000 м мгла 3/0
[Ac trans]
+35.0 +26.0 60 +51 +57 опасность
перегрева
1003.1 1002.9 +32.3
09 23.08 В 5 8000 м мгла 3/0
[Ac trans]
+37.0 +23.1 45 +47 +57 опасность
перегрева
1002.6 1002.4
12 23.08 В 5 6000 м мгла 4/0
[Ac trans]
+36.2 +28.2 64 +58 +62 опасность
перегрева
1001.8 1001.6
15 23.08 В 3 6000 м мгла 1/0
[Ac trans]
+34.3 +28.2 71 +56 +56 опасность
перегрева
1001.7 1001.5
18 23.08 СВ 6 6000 м мгла ясно +33.7 +29.0 77 +58 +58 опасность
перегрева
1003.8 1003.6 +37.5
21 23.08 В 4 6000 м мгла ясно +33.1 +27.7 73 +53 +53 опасность
перегрева
1002.4 1002.2
00 24.08 ЮВ 3 5000 м мгла 3/0
[Ac trans]
+32.7 +28.7 80 +56 +56 опасность
перегрева
1002.0 1001.8
03 24.08 Ю 2 7000 м мгла 4/0
[Ac cast]
+33.2 +27.8 73 +53 +53 опасность
перегрева
1003.8 1003.6
06 24.08 В 3 7000 м мгла 4/0
[Ac trans]
+34.9 +28.3 69 +57 +65 опасность
перегрева
1005.0 1004.8 +32.5
09 24.08 В 5 7000 м мгла 3/0
[Ac trans]
+35.7 +28.3 66 +57 +66 опасность
перегрева
1003.6 1003.4
12 24.08 СВ 4 12 км ясно +37.0 +26.4 55 +53 +59 опасность
перегрева
1002.2 1002.0
15 24.08 СВ 5 12 км ясно +34.7 +28.1 69 +56 +56 опасность
перегрева
1002.3 1002.1
18 24.08 В 4 7000 м мгла ясно +34.2 +29.3 76 +59 +59 опасность
перегрева
1003.1 1002.9 +38.8
21 24.08 ЮВ 2 7000 м мгла ясно +34.4 +28.8 73 +58 +58 опасность
перегрева
1001.7 1001.5
00 25.08 В 3 6000 м мгла ясно +33.4 +29.1 78 +57 +57 опасность
перегрева
1001.7 1001.5
03 25.08 штиль 0 7000 м мгла ясно +33.2 +27.6 73 +53 +54 опасность
перегрева
1002.9 1002.7

 

Местоположение метеостанции Бахрейн (Бахрейн): широта 26.27 долгота 50.65 высота над уровнем моря 2 м.

В архиве по умолчанию представлена погода в Бахрейне за последнюю неделю. Архивные данные за месяц целиком и за предыдущие месяцы, начиная с января 2011 года, Вы можете получить, выбрав интересующий диапазон дат из раскрывающегося списка и нажав кнопку "Ввод!".


*Определитесь, кто Вы:
робот инопланетянин человек

Внимание! Время в таблицах - всемирное. Для получения местного времени необходимо прибавить поправку, которая равна 4 ч.

Смотрите также архив погоды в соседних городах и на ближайших метеорологических станциях:

Погода в Дахране (Саудовская Аравия) (48 км)
Погода в Эд-Даммаме (Саудовская Аравия) (85 км)
Погода в Духане (Катар) (97 км)
Погода в Дохе (Катар) (146 км)
Погода в Аэропорту Хамад (Катар) (147 км)
Погода в Эль-Хуфуфе (Саудовская Аравия) (159 км)
Погода в Доха порту (Катар) (166 км)
Погода в Абу Самба (Катар) (170 км)
Погода в Бендер-Дейере (Иран) (215 км)
Погода в Бушире (Иран) (299 км)

Пояснения к столбцам:

Ветер - указаны скорость ветра в м/с - средняя за 10 мин, порывы в срок и между сроками (в фигурных скобках) и направление, откуда дует ветер: С - северный, СВ - северо-восточный, В - восточный, ЮВ - юго-восточный, Ю - южный, ЮЗ - юго-западный, З - западный, СЗ - северо-западный.
Видимость - горизонтальная дальность видимости в метрах или километрах. При видимости от 1 до 10 км при отсутствии осадков обычно наблюдается дымка, при ухудшении видимости до 1 км и менее - туман. В сухую погоду видимость может ухудшаться дымом, пылью или мглою.
Явления - указаны атмосферные явления, наблюдавшиеся в срок или в последний час перед сроком; фигурными скобками обозначены явления, наблюдавшиеся между сроками (за 1-3 часа до срока); квадратными скобками обозначены град или гололедные отложения с указанием их диаметра в мм.
Облачность - указаны через наклонную черту общая и нижняя облачность в баллах и высота нижней границы облаков в метрах; квадратными скобками обозначены формы облаков: Ci - перистые, Cs - перисто-слоистые, Cc - перисто-кучевые, Ac - высококучевые, As - высокослоистые, Sc - слоисто-кучевые, Ns - слоисто-дождевые, Cu - кучевые, Cb - кучево-дождевые. Подробнее классификацию облаков см. в Атласе облаков (PDF).
T - Температура воздуха - температура, измеренная на высоте 2 м над землей.
Td - Температура точки росы - температура, при понижении до которой содержащийся в воздухе водяной пар достигнет насыщения.
f - Относительная влажность воздуха - влажноcть воздуха, измеренная на высоте 2 м над землей.
Te - Эффективная температура - температура, которую ощущает одетый по сезону человек в тени. Характеристика душности погоды. При расчете учитывается влияние влажности воздуха и скорости ветра на теплоощущения человека.
Tes - Эффективная температура на солнце - температура, которую ощущает человек, с поправкой на солнечный нагрев. Характеристика знойности погоды. Зависит от высоты солнца над горизонтом, облачности и скорости ветра. Ночью, в пасмурную погоду, а также при ветре 12 м/с и более поправка равна нулю.
P - Атмосферное давление - приведенное к уровню моря атмосферное давление.
Po - Атмосферное давление - измеренное на уровне метеостанции атмосферное давление.
Tmin - Минимальная температура - минимум температуры воздуха на высоте 2 м над землей.
Tmax - Максимальная температура - максимум температуры воздуха на высоте 2 м над землей.
R - Количество осадков - Количество выпавших осадков за период времени, мм. При наведении курсора мыши на число - период времени, за который выпало указанное количество осадков.
R24 - Количество осадков - Количество выпавших осадков за 24 часа, мм.
S - Снежный покров - Высота снежного покрова, см. При наведении курсора мыши на число - состояние снежного покрова и степень покрытия местности в баллах.